User: anonymous   Login
Location: Unspecified
(0.0000°N, 0.0000°E)
Time: 18:05:29
(UTC+00:00)
Language:

TBA - TO BE ASSIGNED - Orbit

View from above orbital plane
View from above orbital plane
View from above satellite
View from above satellite

Ground track
Ground track

The orbit is defined by the following mean orbital elements,

1 68598U          26144.82598325 +.00000000 +00000-0 +74328-3 0 00005
2 68598  51.8668 290.0661 0009328 301.3869  58.6204 15.37643717    07
Epoch (UTC): 24 May 2026 19:49:24
Eccentricity: 0.0009328
inclination: 51.8668°
perigee height: 447 km
apogee height: 459 km
right ascension of ascending node: 290.0661°
argument of perigee: 301.3869°
revolutions per day: 15.37643717
mean anomaly at epoch: 58.6204°

The dashed part of the orbit path shows where the satellite is in the earth's shadow,  

DLR